• In Uzbekistan
  • List of Countries
  • For 7 days
  • Water Temperature
  • Satellite Maps
  • Weather Map
  • Weather Widgets
  • user-avatar
    Login

    Hourly Weather Chavantes

    Today, 11 December, Monday

    Time Temperature Precipitation Wind Pressure Humidity
    00:00 +25°C° 0 mm 1 mps 708 mmHg 67%
    01:00 +24°C° 0 mm 1 mps 708 mmHg 69%
    02:00 +24°C° 0 mm 2 mps 708 mmHg 71%
    03:00 +23°C° 0 mm 2 mps 708 mmHg 73%
    04:00 +23°C° 0 mm 2 mps 708 mmHg 76%
    05:00 +21°C° 0 mm 2 mps 708 mmHg 78%
    06:00 +21°C° 0 mm 2 mps 709 mmHg 81%
    07:00 +24°C° 0 mm 2 mps 709 mmHg 73%
    08:00 +26°C° 0 mm 2 mps 710 mmHg 65%
    09:00 +29°C° 0 mm 2 mps 710 mmHg 57%
    10:00 +30°C° 0 mm 2 mps 710 mmHg 50%
    11:00 +32°C° 0 mm 2 mps 710 mmHg 44%
    12:00 +33°C° 0 mm 1 mps 710 mmHg 38%
    13:00 +33°C° 0 mm 1 mps 710 mmHg 37%
    14:00 +33°C° 0 mm 1 mps 710 mmHg 37%
    15:00 +33°C° 0 mm 1 mps 709 mmHg 37%
    16:00 +32°C° 0 mm 2 mps 709 mmHg 42%
    17:00 +31°C° 0 mm 2 mps 709 mmHg 48%
    18:00 +29°C° 0 mm 3 mps 709 mmHg 53%
    19:00 +27°C° 0 mm 4 mps 710 mmHg 59%
    20:00 +25°C° 0 mm 5 mps 710 mmHg 64%
    21:00 +22°C° 0 mm 6 mps 711 mmHg 70%
    22:00 +21°C° 0 mm 6 mps 711 mmHg 71%
    23:00 +20°C° 0 mm 6 mps 712 mmHg 72%

    Tomorrow, 12 December, Tuesday

    Time Temperature Precipitation Wind Pressure Humidity
    00:00 +20°C° 0 mm 5 mps 712 mmHg 73%
    01:00 +19°C° 0 mm 5 mps 712 mmHg 75%
    02:00 +19°C° 0 mm 5 mps 712 mmHg 76%
    03:00 +17°C° 0 mm 5 mps 712 mmHg 77%
    04:00 +17°C° 0 mm 5 mps 713 mmHg 78%
    05:00 +17°C° 0 mm 5 mps 713 mmHg 79%
    06:00 +17°C° 0 mm 5 mps 713 mmHg 80%
    07:00 +19°C° 0 mm 5 mps 714 mmHg 75%
    08:00 +21°C° 0 mm 6 mps 714 mmHg 71%
    09:00 +23°C° 0 mm 6 mps 715 mmHg 66%
    10:00 +24°C° 0 mm 6 mps 715 mmHg 62%
    11:00 +27°C° 0 mm 5 mps 715 mmHg 58%
    12:00 +28°C° 0 mm 5 mps 715 mmHg 54%
    13:00 +29°C° 0 mm 5 mps 715 mmHg 53%
    14:00 +29°C° 0 mm 5 mps 714 mmHg 52%
    15:00 +30°C° 0 mm 5 mps 713 mmHg 51%
    16:00 +29°C° 0 mm 4 mps 713 mmHg 56%
    17:00 +28°C° 0 mm 4 mps 713 mmHg 60%
    18:00 +27°C° 0 mm 4 mps 713 mmHg 64%
    19:00 +25°C° 0 mm 4 mps 713 mmHg 66%
    20:00 +23°C° 0 mm 5 mps 714 mmHg 69%
    21:00 +21°C° 0 mm 5 mps 715 mmHg 71%
    22:00 +20°C° 0 mm 5 mps 715 mmHg 74%
    23:00 +19°C° 0 mm 5 mps 715 mmHg 77%

    Day after tomorrow, 13 December, Wednesday

    Time Temperature Precipitation Wind Pressure Humidity
    00:00 +17°C° 0 mm 5 mps 715 mmHg 79%
    01:00 +17°C° 0 mm 5 mps 715 mmHg 79%
    02:00 +16°C° 0 mm 5 mps 715 mmHg 79%
    03:00 +17°C° 0 mm 4 mps 714 mmHg 79%
    04:00 +17°C° 0 mm 4 mps 715 mmHg 79%
    05:00 +17°C° 0 mm 4 mps 715 mmHg 80%
    06:00 +17°C° 0 mm 4 mps 715 mmHg 80%
    07:00 +19°C° 0 mm 4 mps 716 mmHg 75%
    08:00 +21°C° 0 mm 4 mps 716 mmHg 70%
    09:00 +23°C° 0 mm 4 mps 717 mmHg 66%
    10:00 +26°C° 0 mm 4 mps 717 mmHg 61%
    11:00 +28°C° 0 mm 3 mps 717 mmHg 57%
    12:00 +30°C° 0 mm 3 mps 716 mmHg 53%
    13:00 +30°C° 0 mm 3 mps 716 mmHg 52%
    14:00 +31°C° 0 mm 2 mps 715 mmHg 52%
    15:00 +31°C° 0 mm 2 mps 714 mmHg 52%
    16:00 +31°C° 0 mm 2 mps 714 mmHg 55%
    17:00 +30°C° 0 mm 2 mps 714 mmHg 58%
    18:00 +30°C° 0 mm 2 mps 714 mmHg 61%
    19:00 +28°C° 0 mm 2 mps 714 mmHg 65%
    20:00 +26°C° 0 mm 2 mps 715 mmHg 68%
    21:00 +25°C° 0 mm 3 mps 715 mmHg 72%
    22:00 +24°C° 0 mm 3 mps 715 mmHg 74%
    23:00 +22°C° 0 mm 3 mps 716 mmHg 76%

    14 December, Thursday

    Time Temperature Precipitation Wind Pressure Humidity
    00:00 +21°C° 0 mm 4 mps 716 mmHg 79%
    01:00 +21°C° 0 mm 3 mps 715 mmHg 80%
    02:00 +20°C° 0 mm 3 mps 715 mmHg 81%
    03:00 +19°C° 0 mm 3 mps 715 mmHg 82%
    04:00 +19°C° 0 mm 3 mps 715 mmHg 81%
    05:00 +19°C° 0 mm 2 mps 715 mmHg 81%
    06:00 +18°C° 0 mm 2 mps 716 mmHg 81%
    07:00 +21°C° 0 mm 2 mps 716 mmHg 76%
    08:00 +24°C° 0 mm 3 mps 717 mmHg 70%
    09:00 +27°C° 0 mm 3 mps 717 mmHg 65%
    10:00 +29°C° 0 mm 3 mps 717 mmHg 60%
    11:00 +30°C° 0 mm 2 mps 717 mmHg 56%
    12:00 +32°C° 0 mm 2 mps 716 mmHg 51%
    13:00 +32°C° 0 mm 2 mps 716 mmHg 51%
    14:00 +32°C° 0 mm 1 mps 715 mmHg 51%
    15:00 +30°C° 0 mm 0 mps 714 mmHg 51%
    16:00 +29°C° 0 mm 0 mps 714 mmHg 54%
    17:00 +31°C° 0 mm 1 mps 714 mmHg 56%
    18:00 +30°C° 0 mm 1 mps 714 mmHg 59%
    19:00 +29°C° 0 mm 1 mps 714 mmHg 62%
    20:00 +27°C° 0 mm 1 mps 714 mmHg 65%
    21:00 +25°C° 0 mm 1 mps 714 mmHg 68%
    22:00 +25°C° 0 mm 1 mps 714 mmHg 69%
    23:00 +24°C° 0 mm 1 mps 714 mmHg 71%

    15 December, Friday

    Time Temperature Precipitation Wind Pressure Humidity
    00:00 +24°C° 0 mm 1 mps 714 mmHg 73%
    01:00 +23°C° 0 mm 1 mps 714 mmHg 74%
    02:00 +23°C° 0 mm 1 mps 714 mmHg 76%
    03:00 +22°C° 0 mm 1 mps 713 mmHg 77%
    04:00 +22°C° 0 mm 1 mps 714 mmHg 79%
    05:00 +22°C° 0 mm 1 mps 714 mmHg 80%
    06:00 +22°C° 0 mm 1 mps 715 mmHg 82%
    07:00 +24°C° 0 mm 1 mps 715 mmHg 73%
    08:00 +27°C° 0 mm 1 mps 716 mmHg 65%
    09:00 +30°C° 0 mm 1 mps 716 mmHg 57%
    10:00 +31°C° 0 mm 1 mps 716 mmHg 52%
    11:00 +33°C° 0 mm 1 mps 716 mmHg 47%
    12:00 +34°C° 0 mm 1 mps 715 mmHg 42%
    13:00 +34°C° 0 mm 1 mps 715 mmHg 43%
    14:00 +34°C° 0 mm 1 mps 714 mmHg 44%
    15:00 +31°C° 0 mm 0 mps 714 mmHg 44%
    16:00 +31°C° 0 mm 0 mps 713 mmHg 48%
    17:00 +32°C° 0 mm 1 mps 713 mmHg 51%
    18:00 +31°C° 0 mm 1 mps 713 mmHg 54%
    19:00 +30°C° 0 mm 1 mps 713 mmHg 57%
    20:00 +28°C° 0 mm 1 mps 713 mmHg 59%
    21:00 +27°C° 0 mm 1 mps 713 mmHg 61%
    22:00 +26°C° 0.3 mm 1 mps 713 mmHg 66%
    23:00 +25°C° 0.3 mm 1 mps 713 mmHg 72%

    16 December, Saturday

    Time Temperature Precipitation Wind Pressure Humidity
    00:00 +24°C° 0.3 mm 1 mps 713 mmHg 77%
    01:00 +23°C° 0.3 mm 1 mps 713 mmHg 80%
    02:00 +23°C° 0.3 mm 2 mps 713 mmHg 83%
    03:00 +21°C° 0.3 mm 2 mps 712 mmHg 85%
    04:00 +21°C° 0 mm 2 mps 713 mmHg 85%
    05:00 +20°C° 0 mm 2 mps 713 mmHg 84%
    06:00 +20°C° 0 mm 2 mps 714 mmHg 83%
    07:00 +23°C° 0 mm 2 mps 714 mmHg 74%
    08:00 +25°C° 0 mm 2 mps 715 mmHg 65%
    09:00 +27°C° 0 mm 2 mps 715 mmHg 56%
    10:00 +29°C° 0 mm 2 mps 715 mmHg 51%
    11:00 +31°C° 0 mm 2 mps 715 mmHg 46%
    12:00 +34°C° 0 mm 2 mps 715 mmHg 41%
    13:00 +33°C° 0 mm 1 mps 714 mmHg 41%
    14:00 +34°C° 0 mm 1 mps 714 mmHg 41%
    15:00 +34°C° 0 mm 1 mps 713 mmHg 41%
    16:00 +33°C° 0 mm 1 mps 713 mmHg 44%
    17:00 +31°C° 0 mm 0 mps 713 mmHg 47%
    18:00 +30°C° 0 mm 0 mps 712 mmHg 51%
    19:00 +28°C° 0 mm 0 mps 713 mmHg 52%
    20:00 +28°C° 0 mm 1 mps 713 mmHg 54%
    21:00 +27°C° 0 mm 1 mps 713 mmHg 56%
    22:00 +26°C° 0 mm 1 mps 713 mmHg 59%
    23:00 +25°C° 0 mm 1 mps 713 mmHg 62%
    Show more